Miscellaneous Local Product
Issued by NWS North Platte, NE

Home | Current Version | Previous Version | Graphics & Text | Print | Product List | Glossary On
Versions: 1 2 3 4 5 6 7 8 9 10 11 12 13 14 15 16 17 18 19 20 21 22 23 24 25 26 27 28 29 30 31 32 33 34 35 36 37 38 39 40 41 42 43 44 45 46 47 48 49 50
357
AXUS43 KLBF 270910
MISLBF


WESTERN AND NORTH CENTRAL NEBRASKA HOURLY WEATHER ROUNDUP
NATIONAL WEATHER SERVICE NORTH PLATTE NE
400 AM CDT WED JUL 27 2016

NOTE: "FAIR" INDICATES FEW OR NO CLOUDS BELOW 12,000 FEET WITH NO
SIGNIFICANT WEATHER AND/OR OBSTRUCTIONS TO VISIBILITY.

NOTE: STATIONS NOT REPORTING VARIABLES SUCH AS SKY/WEATHER OR
PRESSURE ARE PROVIDED BY RAWS AND APRS NETWORKS AND ARE NOT UNDER
NATIONAL WEATHER SERVICE QUALITY CONTROL.

...OBSERVATIONS IN AND NEAR THE EASTERN PANHANDLE OF NEBRASKA...

CITY           SKY/WX    TMP DP  RH WIND       PRES   REMARKS
PINE RIDGE     CLEAR     59  58  96 E3        30.10R
CHADRON        CLOUDY    63  58  83 CALM      30.11R
ALLIANCE       LGT RAIN  63  59  87 S12       30.14F
SIDNEY         CLOUDY    68  58  70 N13       30.15R
CRESCENT LAKE    N/A     65  58  78 NW6G13      N/A
$$

...OBSERVATIONS IN NORTHERN NEBRASKA AND FAR SOUTHERN SOUTH DAKOTA...

CITY           SKY/WX    TMP DP  RH WIND       PRES   REMARKS
WINNER         FAIR      65  58  78 SW6       30.01R
VALENTINE      PTCLDY    61  58  90 MISG      30.06S
THEDFORD       CLOUDY    63  60  90 S7        30.08F
AINSWORTH      PTCLDY    62  59  90 SW7       30.02R
O`NEILL        CLOUDY    67  62  83 E8        29.94F
ORD            CLOUDY    63  60  90 SW9       30.00R
BROKEN BOW     CLOUDY    61  60  97 CALM      30.05F
VALENTINE NWR    N/A     61  58  91 S6          N/A
BUTTE            N/A     67  60  78 S9G20       N/A
HALSEY           N/A     63  58  84 SE6         N/A
EWING            N/A     66  64  95 CALM        N/A
$$

...OBSERVATIONS IN SOUTHWEST NEBRASKA AND FAR NORTHEAST COLORADO...

CITY           SKY/WX    TMP DP  RH WIND       PRES   REMARKS
WRAY           FAIR      68  55  64 E9        30.12R
HOLYOKE        FAIR      66  61  82 W15       30.11R
IMPERIAL       CLOUDY    64  57  78 SE16      30.10S
OGALLALA       CLOUDY    64  58  79 SE10      30.08F
NORTH PLATTE   CLOUDY    61  60  97 E6        30.07F
MCCOOK         CLOUDY    64  59  83 SE10      30.08F
LEXINGTON      MOCLDY    62  60  93 CALM      30.07F
GOTHENBURG       N/A     63  58  84 E3          N/A
CALLAWAY         N/A     60  59  96 SE7         N/A
$$

...OBSERVATIONS IN CENTRAL LINCOLN COUNTY AREA...

CITY           SKY/WX    TMP DP  RH WIND       PRES   REMARKS
N.P. AIRPORT   CLOUDY    61  60  97 E6        30.07F
N.P. DOWNTOWN    N/A     63  60  88 CALM        N/A
N.P. SOUTHEAST   N/A     63  59  88 CALM        N/A
N.P. HILLCREST   N/A     61  59  94 SE5         N/A
$$

...SOME OBSERVATIONS FROM AROUND THE REGION...

CITY           SKY/WX    TMP DP  RH WIND       PRES   REMARKS
DENVER         PTCLDY    69  51  52 S14       30.15S
LARAMIE        CLOUDY    59  34  39 SE5       30.28F
CHEYENNE       CLOUDY    59  45  59 CALM      30.21F
SCOTTSBLUFF    CLOUDY    67  57  70 S15G23    30.08F
RAPID CITY     CLEAR     63  60  90 NW13      30.08S
BISMARCK       CLEAR     63  60  90 N6        30.07R
PIERRE         MOCLDY    64  61  90 CALM      29.98R
SIOUX FALLS    CLOUDY    75  63  66 SW14G25   29.94S
OMAHA          CLOUDY    74  66  76 S5        30.02R
GRAND ISLAND   CLOUDY    70  58  65 S17       29.98F
KANSAS CITY    CLEAR     70  66  87 E5        30.00S
WICHITA        PTCLDY    76  71  85 NE5       29.98R
OKLAHOMA CITY  PTCLDY    73  72  96 S6        29.94F
DALLAS         MOCLDY    79  72  79 SE7       29.90S
AMARILLO       CLEAR     68  64  87 SE8       30.07S
DODGE CITY     MOCLDY    69  67  93 S5        30.03R
HAYS           CLOUDY    73  64  73 NE9       30.03S
GOODLAND       CLOUDY    69  58  67 NE12      30.10R
$$




USA.gov is the U.S. government's official web portal to all federal, state and local government web resources and services.